Tracking 18840 objects as of 20-November-2017
HD Live streaming from Space Station
objects crossing your sky now

FENGYUN 1C DEB

Track FENGYUN 1C DEB now!
10-day predictions


NORAD ID: 38159
Int'l Code: 1999-025ERG
Perigee: 858.8 km
Apogee: 940.8 km
Inclination: 99.3 °
Period: 102.8 minutes
Semi major axis: 7270 km
RCS: 0.003 m2 (small)
Launch date: May 10, 1999
Source: People's Republic of China (PRC)
Launch site: Taiyaun Space Center, China (TSC)

Note: This is SATELLITE DEBRIS
aabbcc
Your satellite tracking list
Your tracking list is empty




NASA's NSSDC Master Catalog

Two Line Element Set (TLE):
1 38159U 99025ERG 17322.57931345 +.00000148 +00000-0 +12935-3 0  9999
2 38159 099.3285 085.8315 0056450 115.0475 245.6564 14.00328718418523
Source of the keplerian elements: AFSPC